Location: Sevilla
(37.3933°N, 5.9839°W)
Time: 05:32:04
(UTC+02:00)

Transit 2A - Pass Details

Date: 26 June 2024
Orbit: 591 x 960 km, 66.7° (Epoch: 15 July)

Event Time Altitude Azimuth Distance (km) Brightness Sun altitude
Rises 01:58:57 0° 329° (NNW) 3,578 10.5 -28.9°
Reaches altitude 10° 02:01:27 10° 328° (NNW) 2,660 9.6 -29.0°
Enters shadow 02:07:35 72° 256° (WSW) 1,006 6.4 -29.1°
Maximum altitude 02:07:43 72° 245° (WSW) 1,005 - -29.1°
Drops below altitude 10° 02:14:00 10° 162° (SSE) 2,667 - -29.2°
Sets 02:16:31 0° 161° (SSE) 3,587 - -29.2°
